DMSP 5D-2 F13 DEB, 40570

Orbit data source: Space-Track

DMSP 5D-2 F13 DEB, 40570 is space debris in SSO originally from a launch on Fri, 24 Mar 1995 UTC launched from the Air Force Western Test Range (AFWTR). Debris objects in space refer to the collection of defunct objects orbiting the Earth. Examples of debris include non-operational satellites, rocket bodies, and fragments generated from explosions, collisions, or faulty payload assembly.

Loading next visibility...
Identifier
40570, 1995-015ED
Orbit
SSO
Country
Flag of USUS
Related business
Manufacturer
Unknown
Mission
Spacecraft
Bus & Motor
Unknown
Mass
Unknown
Launch date (UTC)
1995-03-24 (31 years ago)
Launch vehicle
Unknown
Launch site
Air Force Western Test Range (AFWTR)
Object type
Payload
Rocket body
Debris
Shape & HBR
Unknown shape, 0.1 m
Radar Cross Section
Small (<0.1 m²)

Expand to show TLE details & history
Last TLE update: 1 day ago

TLE from 1 day ago
0 DMSP 5D-2 F13 DEB
1 40570U 95015ED  25349.20968193  .00174788  00000-0  79106-2 0  9997
2 40570  98.6425  70.3304 0009289 261.0967  98.9213 15.20062216559745
Epoch: 2025-12-15T05:01Z
TLE epoch observation values (Epoch: 2025-12-15T05:01:56.518Z)
Latitude
-0.00003°
Longitude
-89.26661°
Altitude
509.703 km
Speed
7.609 km/s
True Right ascension
04h 41m 19s
True Declination
0° 00' 00"
Sunlit
Object was in full shadow at epoch
Visualization orbit readout
Latitude
Unknown
Longitude
Unknown
Altitude
Unknown
Speed
Unknown
Apparent Right ascension
Unknown
Apparent Declination
Unknown
Sunlit
N/A
Visualization observer readout
Local Sidereal Time
05:08:13
Azimuth
Unknown
Elevation
Unknown
Doppler factor
Unknown
Orbital elements
Apogee altitude
509.067 km
Perigee altitude
496.284 km
Semi-major axis
6,880.813 km
Eccentricity
0.00093
Inclination
98.6425°
RAAN
70.3304°
Arg. of periapsis
261.0967°
True anomaly
99.02644°
Mean anomaly
98.9213°
Eccentric anomaly
98.97387°
Mean motion
3.80263 °/min
Orbital period
94.67 mins
BSTAR
0.0079106
Loading maneuver chart data...
Computing Atmospheric mass density...

Documentation

Showing up to 5 results
|